sat.trackr.live / text

‹ back to catalog

KUIPER-00014

NORAD 63730 · 2025-088G

PAYLOAD ACTIVE UNKNOWN

§ Identity

Operator
Country
US
Launch date
2025-04-28
Launch site
AFETR
Launch vehicle
Mass (kg)
RCS (m²)

External: N2YO · Heavens-Above · Gunter

§ Orbital elements

Epoch: 2026-05-25T02:59:13.974720Z

Period
97.30 min
Inclination
51.9010°
Eccentricity
0.0000301
Mean motion
14.79928886 rev/d
Perigee alt
629.3 km
Apogee alt
629.8 km
Semi-major
7,007.7 km
B*
1.6574e-4
RAAN
130.0545°
Arg perigee
38.0723°
Mean anomaly
322.0261°
Rev number
5,870

§ Raw data

KUIPER-000141 63730U 25088G   26145.12446730  .00001043  00000+0  16574-3 0  99902 63730  51.9010 130.0545 0000301  38.0723 322.0261 14.79928886 58700

JSON: /api/v1/satellites/63730 · /tle

For live sub-satellite position, see the globe view (requires WebGL).

§ Visibility from observer

Set your observer location to see the next 7 days of passes ≥ 10°. The values pass through the URL so the page stays shareable.

No JS? Fill the form by hand. The geolocation button needs JavaScript.